Weather History for Manchester, NH

Change the Weather History Date:

Thursday, June 13, 2013

  Actual Average Record
Temperature  
Mean Temperature 60 °F -  
Max Temperature 68 °F 74 °F 95 °F (1956)
Min Temperature 51 °F 52 °F 39 °F (1976)
Degree Days  
Heating Degree Days 6    
Growing Degree Days 10 (Base 50)    
Moisture  
Dew Point 53 °F    
Average Humidity 83    
Maximum Humidity 94    
Minimum Humidity 56    
Precipitation  
Precipitation 0.29 in - - ()
Sea Level Pressure  
Sea Level Pressure 29.78 in    
Wind  
Wind Speed 2 mph (SSE)    
Max Wind Speed 9 mph    
Max Gust Speed -    
Visibility 9 miles    
Events Rain    
Averages and records for this station are not official NWS values.
T = Trace of Precipitation, MM = Missing Value Source: NWS Daily Summary

Daily Weather History Graph

Daily Weather History Graph

Search for Another Location

Airport:

Trip Planner

Search our weather history database for the weather conditions in past years. The results will help you decide how hot, cold, wet, or windy it might be!

Date:

Astronomy

Jun. 13, 2013 Rise Set
Actual Time 5:06 AM EDT 8:25 PM EDT
Civil Twilight 4:31 AM EDT 9:00 PM EDT
Nautical Twilight 3:45 AM EDT 9:46 PM EDT
Astronomical Twilight 2:49 AM EDT 10:42 PM EDT
Moon 9:45 AM EDT (6/13) 11:24 PM EDT (6/13)
Length of Visible Light 16h 29m
Length of Day
15h 19m
Waxing Crescent, 21% of the Moon is Illuminated
Jun 13
Waxing Crescent
Jun 16
First Quarter
Jun 23
Full
Jun 30
Last Quarter
Jul 8
New

Hourly Weather History & Observations

Time (EDT) Temp. Dew Point Humidity Pressure Visibility Wind Dir Wind Speed Gust Speed Precip Events Conditions
12:53 AM 59.0 °F 52.0 °F 78% 29.83 in 10.0 mi Calm Calm - N/A   Clear
1:53 AM 57.0 °F 51.1 °F 81% 29.83 in 10.0 mi Calm Calm - N/A   Clear
2:53 AM 55.0 °F 51.1 °F 86% 29.83 in 10.0 mi Calm Calm - N/A   Clear
3:53 AM 55.0 °F 51.1 °F 86% 29.81 in 10.0 mi Calm Calm - N/A   Clear
4:53 AM 51.1 °F 48.9 °F 92% 29.83 in 10.0 mi Calm Calm - N/A   Clear
5:53 AM 54.0 °F 51.1 °F 90% 29.83 in 10.0 mi Calm Calm - N/A   Mostly Cloudy
6:53 AM 57.0 °F 51.1 °F 81% 29.83 in 10.0 mi West 4.6 mph - N/A   Partly Cloudy
7:53 AM 61.0 °F 52.0 °F 72% 29.83 in 10.0 mi Calm Calm - N/A   Scattered Clouds
8:53 AM 64.0 °F 52.0 °F 65% 29.82 in 10.0 mi Calm Calm - N/A   Scattered Clouds
9:53 AM 64.9 °F 52.0 °F 63% 29.81 in 10.0 mi Calm Calm - N/A   Partly Cloudy
10:53 AM 66.9 °F 52.0 °F 59% 29.81 in 10.0 mi ESE 4.6 mph - N/A   Clear
11:53 AM 68.0 °F 52.0 °F 56% 29.80 in 10.0 mi SSE 6.9 mph - N/A   Clear
12:53 PM 66.9 °F 54.0 °F 63% 29.80 in 10.0 mi SSW 9.2 mph - 0.00 in Rain Light Rain
1:53 PM 62.1 °F 55.9 °F 80% 29.77 in 7.0 mi SSE 3.5 mph - 0.03 in Rain Light Rain
2:53 PM 61.0 °F 57.0 °F 87% 29.76 in 8.0 mi South 9.2 mph - 0.02 in Rain Light Rain
3:28 PM 60.8 °F 57.2 °F 88% 29.73 in 8.0 mi SSW 6.9 mph - 0.02 in Rain Light Rain
3:53 PM 60.1 °F 55.9 °F 86% 29.78 in 10.0 mi South 8.1 mph - 0.02 in Rain Light Rain
4:10 PM 59.0 °F 55.4 °F 88% 29.74 in 6.0 mi South 8.1 mph - 0.02 in Rain Light Rain
4:53 PM 57.0 °F 54.0 °F 89% 29.78 in 8.0 mi South 9.2 mph - 0.06 in Rain Light Rain
5:12 PM 57.2 °F 53.6 °F 88% 29.74 in 10.0 mi South 4.6 mph - 0.01 in Rain Light Rain
5:53 PM 57.0 °F 53.1 °F 87% 29.76 in 10.0 mi South 4.6 mph - 0.01 in Rain Light Rain
6:53 PM 57.0 °F 54.0 °F 89% 29.78 in 10.0 mi NNW 4.6 mph - 0.01 in Rain Light Rain
7:53 PM 55.9 °F 54.0 °F 93% 29.77 in 9.0 mi Calm Calm - 0.03 in Rain Light Rain
8:53 PM 55.9 °F 54.0 °F 93% 29.76 in 10.0 mi Calm Calm - 0.04 in Rain Light Rain
9:19 PM 55.4 °F 53.6 °F 94% 29.72 in 10.0 mi NNE 4.6 mph - 0.00 in Rain Light Rain
9:33 PM 55.4 °F 53.6 °F 94% 29.73 in 10.0 mi NNE 4.6 mph - 0.01 in Rain Light Rain
9:53 PM 55.9 °F 54.0 °F 93% 29.77 in 10.0 mi NE 3.5 mph - 0.01 in Rain Light Rain
10:53 PM 55.9 °F 54.0 °F 93% 29.76 in 3.0 mi NNE 3.5 mph - 0.03 in Rain Light Rain
11:53 PM 55.0 °F 53.1 °F 93% 29.74 in 4.0 mi North 4.6 mph - 0.03 in Rain Light Rain